C/2024 O1 ( PanSTARRS )

Japanese version
Home page
Updated on August 3, 2024

---------------------------------------------------------------------

* Profile

Discovery Date July 28, 2024
Magnitude 21.0 mag
Discoverer Pan-STARRS 1 telescope (Haleakala)

* Orbital Elements

Epoch 2024 Oct. 17.0 TT = JDT 2460600.5                                         
T 2023 Jan. 28.99496 TT                                 Rudenko                 
q   6.6081594            (2000.0)            P               Q                  
z  -0.0001926      Peri.  349.92414     +0.46594233     +0.51890317             
 +/-0.0000064      Node   303.33541     -0.74034162     -0.21493626             
e   1.0012729      Incl.   59.07319     -0.48455344     +0.82737047             
>From 34 observations 2023 June 18-2024 Aug. 1, mean residual 0".2.              

* Magnitudes Graph

        m1 = 8.5 + 5 log d + 10.0 log r

---------------------------------------------------------------------

The orbital elements are published on M.P.E.C. 2024-P21.
The magnitudes graphs are made with Comet for Windows.

---------------------------------------------------------------------

Copyright(C) Seiichi Yoshida (comet@aerith.net). All rights reserved.